Tracking 19484 objects as of 20-Jan-2019
HD Live streaming from Space Station
objects crossing your sky now

RADUGA 16

Track RADUGA 16 now!
RADUGA 16 is classified as:


NORAD ID: 15946
Int'l Code: 1985-070A
Perigee: 35,766.5 km
Apogee: 35,802.1 km
Inclination: 13.8 °
Period: 1,435.6 minutes
Semi major axis: 42155 km
RCS: 3.2066 m2 (large)
Launch date: August 8, 1985
Source: Commonwealth of Independent States (former USSR) (CIS)
Launch site: TYURATAM MISSILE AND SPACE COMPLEX (TTMTR)
aabbcc
Your satellite tracking list
Your tracking list is empty




NASA's NSSDC Master Catalog

Two Line Element Set (TLE):
1 15946U 85070A   19019.28817069 +.00000097 +00000-0 +00000-0 0  9992
2 15946 013.7599 339.7436 0004222 316.1953 118.5572 01.00305462095097
Source of the keplerian elements: AFSPC